Location: Observatoire
(46.1952°N, 5.3391°E)
Time: 09:56:29
(UTC+01:00)

Tiros 1 despin weight - All Passes

Search period start: 17 February 2026 00:00
Search period end: 27 February 2026 00:00
Orbit: 557 x 594 km, 48.2° (Epoch: 15 February)

Date Brightness Start Highest point End Pass type
(mag) Time Alt. Az. Time Alt. Az. Time Alt. Az.
17 Feb - 14:47:52 10° S 14:50:24 16° SE 14:52:55 10° E daylight
17 Feb - 16:26:14 10° SW 16:30:22 60° SSE 16:34:31 10° ENE daylight
17 Feb - 18:06:47 10° W 18:10:59 68° N 18:15:10 10° ENE daylight
17 Feb - 19:47:32 10° WNW 19:51:45 82° NNE 19:55:59 10° ESE visible
17 Feb - 21:28:16 10° W 21:32:08 36° SSW 21:36:01 10° SE visible
18 Feb - 14:49:22 10° SSW 14:52:41 23° SE 14:55:59 10° E daylight
18 Feb - 16:28:38 10° WSW 16:32:50 78° SSE 16:37:02 10° ENE daylight
18 Feb - 18:09:22 10° W 18:13:32 65° N 18:17:44 10° E daylight
18 Feb - 19:50:03 10° WNW 19:54:16 83° SSW 19:58:29 10° ESE visible
18 Feb - 21:31:00 10° W 21:34:29 25° SW 21:37:58 10° SSE visible
19 Feb - 14:51:14 10° SSW 14:55:00 32° SE 14:58:46 10° E daylight
19 Feb - 16:31:07 10° WSW 16:35:20 86° NNW 16:39:33 10° ENE daylight
19 Feb - 18:11:55 10° W 18:16:06 67° N 18:20:17 10° E daylight
19 Feb - 19:52:34 10° WNW 19:56:44 65° SSW 20:00:55 10° ESE visible
19 Feb - 21:33:56 10° W 21:36:46 18° SW 21:39:36 10° S visible
20 Feb - 13:16:42 10° SE 13:17:34 11° SE 13:18:26 10° ESE daylight
20 Feb - 14:53:20 10° SW 14:57:22 45° SSE 15:01:23 10° ENE daylight
20 Feb - 16:33:39 10° W 16:37:51 74° N 16:42:03 10° ENE daylight
20 Feb - 18:14:27 10° WNW 18:18:39 72° N 18:22:51 10° E daylight
20 Feb - 19:55:06 10° WNW 19:59:09 48° SSW 20:03:13 10° SE visible
20 Feb - 21:37:31 10° WSW 21:38:59 12° SW 21:40:28 10° SSW visible
21 Feb - 13:17:08 10° S 13:19:47 16° SE 13:22:25 10° E daylight
21 Feb - 14:55:37 10° SW 14:59:46 61° SSE 15:03:55 10° ENE daylight
21 Feb - 16:36:11 10° W 16:40:23 68° N 16:44:35 10° ENE daylight
21 Feb - 18:16:57 10° WNW 18:21:09 83° NNE 18:25:22 10° ESE daylight
21 Feb - 19:57:42 10° W 20:01:31 34° SSW 20:05:21 10° SSE visible
22 Feb - 13:18:39 10° SSW 13:22:02 24° SE 13:25:24 10° E daylight
22 Feb - 14:57:59 10° WSW 15:02:12 79° SSE 15:06:25 10° ENE daylight
22 Feb - 16:38:44 10° W 16:42:55 65° N 16:47:06 10° E daylight
22 Feb - 18:19:26 10° WNW 18:23:38 81° SSW 18:27:50 10° ESE daylight
22 Feb - 20:00:24 10° W 20:03:49 24° SW 20:07:15 10° SSE visible
23 Feb - 13:20:30 10° SSW 13:24:19 33° SSE 13:28:08 10° E daylight
23 Feb - 15:00:26 10° WSW 15:04:40 85° NNW 15:08:54 10° ENE daylight
23 Feb - 16:41:15 10° W 16:45:27 67° N 16:49:38 10° E daylight
23 Feb - 18:21:54 10° WNW 18:26:04 63° SSW 18:30:13 10° ESE daylight
23 Feb - 20:03:20 10° W 20:06:04 17° SW 20:08:48 10° S visible
24 Feb - 11:45:36 10° SSE 11:46:51 11° SE 11:48:05 10° ESE daylight
24 Feb - 13:22:35 10° SW 13:26:40 46° SSE 13:30:42 10° ENE daylight
24 Feb - 15:02:56 10° W 15:07:09 74° NNW 15:11:22 10° ENE daylight
24 Feb - 16:43:44 10° WNW 16:47:57 73° N 16:52:09 10° E daylight
24 Feb - 18:24:25 10° WNW 18:28:27 47° SSW 18:32:28 10° SE daylight
24 Feb - 20:07:02 10° WSW 20:08:15 11° SW 20:09:29 10° SSW visible
25 Feb - 11:46:15 10° S 11:49:01 17° SE 11:51:46 10° E daylight
25 Feb - 13:24:50 10° SW 13:29:02 63° SSE 13:33:12 10° ENE daylight
25 Feb - 15:05:27 10° W 15:09:40 67° N 15:13:51 10° ENE daylight
25 Feb - 16:46:12 10° WNW 16:50:26 84° NNE 16:54:38 10° ESE daylight
25 Feb - 18:26:59 10° W 18:30:47 33° SSW 18:34:34 10° SSE daylight
26 Feb - 11:47:46 10° SSW 11:51:15 24° SE 11:54:42 10° E daylight
26 Feb - 13:27:11 10° WSW 13:31:26 81° SSE 13:35:40 10° ENE daylight
26 Feb - 15:07:57 10° W 15:12:10 65° N 15:16:21 10° E daylight
26 Feb - 16:48:39 10° WNW 16:52:52 80° SSW 16:57:04 10° ESE daylight
26 Feb - 18:29:40 10° W 18:33:03 24° SW 18:36:25 10° SSE daylight
